{"data":{"norad_id":48434,"epoch":"2026-09-20T04:42:25.127424Z","epoch_age_seconds":63435,"freshness":"FRESH","line1":"1 48434U 21040G   26263.19612416 -.00000021  00000+0  11103-4 0  9992","line2":"2 48434  53.1586 327.5764 0001411  97.1518 262.9644 15.31703411296843","mean_motion":15.31703411,"eccentricity":0.0001411,"inclination_deg":53.1586,"raan_deg":327.5764,"arg_perigee_deg":97.1518,"mean_anomaly_deg":262.9644,"bstar":1.1103e-5,"rev_number":29684,"period_min":94.012978600072,"perigee_km":469.76345212169,"apogee_km":471.69620234033,"semimajor_km":6848.866827231,"source":"CELESTRAK","updated_at":"2026-09-20T09:00:39.123800Z"}}